Regional Weather Roundup
Issued by NWS

Home | Current Version | Previous Version | Text Only | Print | Product List | Glossary On
Versions: 1 2 3 4 5 6 7 8 9 10 11 12 13 14 15 16 17 18 19 20 21 22 23 24 25 26 27 28
000
ASPQ40 PGUM 232012
RWRPQ
WEATHER ROUNDUP FOR THE MARIANAS AND MICRONESIA
NATIONAL WEATHER SERVICE TIYAN GU
600 AM CHST FRI OCT 24 2014

GUZ001>004-232100-
MARIANA ISLANDS-

CITY           SKY/WX    TMP DP  RH WIND       PRES   REMARKS
GUAM AIRPORT   CLEAR     79  77  94 CALM      29.84R
ANDERSEN AFB   PTCLDY    79  75  89 S6        29.84R
ROTA AIRPORT   NOT AVBL
TINIAN AP      MOCLDY    77  75  94 E7        29.84
SAIPAN AP      PTCLDY    79  75  89 E7        29.86R

$$

PMZ161-232100-
REPUBLIC OF PALAU-

CITY           SKY/WX    TMP DP  RH WIND       PRES   REMARKS
KOROR AP       MOCLDY    75  75 100 CALM      29.80R
KOROR WSO      MOCLDY    79  75  89 CALM      29.79R

$$

PMZ171>174-232100-
FEDERATED STATES OF MICRONESIA-

CITY           SKY/WX    TMP DP  RH WIND       PRES   REMARKS
YAP AIRPORT    MOCLDY    79  77  94 VRB3      29.82R
CHUUK AP       NOT AVBL
POHNPEI AP     NOT AVBL
POHNPEI WSO    CLOUDY    77  75  94 SE5       29.88R
KOSRAE AP      NOT AVBL

$$

PMZ181-232100-
REPUBLIC OF THE MARSHALL ISLANDS-

CITY           SKY/WX    TMP DP  RH WIND       PRES   REMARKS
KWAJALEIN AP   PTSUNNY   79  73  83 E20       29.88R
MAJURO AP      NOT AVBL
MAJURO WSO     PTSUNNY   84  77  79 E9        29.85R HX  94

$$




USA.gov is the U.S. government's official web portal to all federal, state and local government web resources and services.